Flag for Sweden Weather past 2 weeks in Gothenburg, Sweden

Now
61 °F

Cool.


Feels Like: 61 °F
Forecast: 58 / 63 °F
Wind: 2 mph from South

Location: Gothenburg / Save

Current Time: Jul 5, 2015 at 3:02:56 AM

Latest Report: Jul 5, 2015 at 2:20 AM


Visibility: 0 mi

Pressure: 30.09 "Hg

Humidity: 94%

Dew point: 59 °F

Location of GothenburgLocation

Historic Weather in Gothenburg — Graph

°F

Gothenburg temperature yesterday

Maximum temperature yesterday: 75 °F (at 12:50 PM)
Minimum temperature yesterday: 57 °F (at 3:50 AM)
Average temperature yesterday: 67 °F

Past Weeks' High & Low Weather Summary

 TemperatureHumidityPressure
High77 °F (Jul 2, 11:20 AM)100% (Jun 20, 2:50 AM)30.36 "Hg (Jun 20, 2:50 AM)
Low45 °F (Jun 27, 4:20 AM)38% (Jun 20, 1:50 PM)29.62 "Hg (Jun 22, 7:20 PM)
Average60 °F76%29.99 "Hg
* Reported Jun 20 1:20 AM — Jul 5 1:50 AM, Gothenburg, Weather by CustomWeather, © 2015

Note: Actual official high and low records may vary slightly from our data, if they occured in-between our weather recording intervals... More about our weather records

Advertising

Gothenburg weather history for previous 24 hours

 ConditionsComfort  
Time TempWeatherWind HumidityBarometerVisibility
1:50 AM
Sun, Jul 5
63 °FFog.1 mph94%30.07 "Hg4 mi
1:20 AM63 °FPartly cloudy.1 mph94%30.07 "Hg5 mi
12:50 AM64 °FPassing clouds.No wind94%30.07 "HgN/A
12:20 AM64 °FPassing clouds.5 mph94%30.07 "HgN/A
11:50 PM
Sat, Jul 4
64 °FMostly cloudy.1 mph88%30.09 "HgN/A
11:20 PM66 °FOvercast.No wind83%30.09 "HgN/A
10:50 PM66 °FMostly cloudy.No wind83%30.09 "HgN/A
10:20 PM66 °FOvercast.3 mph83%30.09 "HgN/A
9:50 PM66 °FSunny.3 mph83%30.09 "Hg10 mi
9:20 PM68 °FSunny.5 mph78%30.09 "Hg10 mi
8:50 PM70 °FSunny.3 mph78%30.09 "Hg10 mi
7:50 PM72 °FSunny.No wind69%30.09 "Hg10 mi
7:20 PM72 °FSunny.5 mph69%30.09 "Hg10 mi
6:50 PM72 °FSunny.6 mph69%30.09 "Hg10 mi
6:20 PM73 °FSunny.2 mph65%30.09 "Hg10 mi
5:50 PM75 °FPassing clouds.5 mph57%30.12 "HgN/A
5:20 PM72 °FSunny.7 mph65%30.12 "Hg10 mi
4:50 PM72 °FSunny.8 mph69%30.12 "Hg10 mi
4:20 PM73 °FSunny.7 mph65%30.12 "Hg10 mi
3:50 PM73 °FSunny.8 mph61%30.15 "Hg10 mi
3:20 PM72 °FSunny.9 mph65%30.15 "Hg10 mi
2:50 PM72 °FPassing clouds.9 mph69%30.15 "HgN/A
2:20 PM70 °FPassing clouds.12 mph69%30.15 "HgN/A
1:50 PM72 °FSunny.10 mph65%30.15 "Hg10 mi
1:20 PM75 °FPassing clouds.5 mph65%30.15 "HgN/A
12:50 PM75 °FSunny.2 mph61%30.15 "Hg10 mi
12:20 PM72 °FSunny.2 mph65%30.15 "Hg10 mi
11:50 AM70 °FSunny.6 mph69%30.18 "Hg10 mi
11:20 AM66 °FScattered clouds.9 mph78%30.18 "HgN/A
10:50 AM66 °FPassing clouds.8 mph83%30.21 "HgN/A
10:20 AM66 °FScattered clouds.9 mph83%30.21 "HgN/A
9:50 AM68 °FSunny.7 mph83%30.18 "Hg10 mi
9:20 AM70 °FPassing clouds.5 mph78%30.18 "HgN/A
8:50 AM70 °FSunny.5 mph78%30.18 "Hg10 mi
8:20 AM68 °FSunny.2 mph78%30.18 "Hg10 mi
7:50 AM66 °FPassing clouds.3 mph83%30.18 "HgN/A
7:20 AM64 °FSunny.1 mph88%30.18 "Hg10 mi
6:50 AM63 °FPassing clouds.No wind88%30.18 "HgN/A
6:20 AM59 °FSunny.No wind94%30.18 "Hg10 mi
5:50 AM57 °FFog.1 mph94%30.21 "Hg4 mi
5:20 AM57 °FFog.No wind94%30.21 "Hg6 mi
4:50 AM57 °FFog.1 mph94%30.21 "Hg6 mi
4:20 AM57 °FFog.1 mph94%30.21 "Hg6 mi
3:50 AM57 °FClear.1 mph94%30.21 "Hg6 mi
3:20 AM59 °FFog.2 mph94%30.21 "Hg6 mi
Weather by CustomWeather, © 2015

See weather overviewHow to use our weather pages